Wind_Speed
27 30 30 25 16 9 10 10 12 11 15 9 11 10 8 15 27 31 31 31 28 23 21 20 16 10 9 9 8 9 8 8 9 8 7 8 9 10 11 12 12 11 12 12
24 31 28 20 16 11 8 13 11 13 13 13 10 6 3 17 28 31 31 29 26 26 24 20 17 13 9 7 8 9 9 9 9 8 9 12 11 9 9 10 11 10 11 11
24 14 25 20 19 15 11 9 15 12 13 9 10 1 8 17 28 28 31 28 27 24 21 20 18 14 7 6 8 8 11 10 10 8 8 10 8 9 9 9 8 9 9 11
18 8 25 21 21 17 12 9 7 14 13 9 8 4 4 15 24 31 30 32 29 28 23 18 17 14 8 6 9 9 11 10 10 9 9 9 10 10 9 9 8 8 9 10
12 21 24 21 20 18 11 10 8 13 8 10 10 7 15 12 19 28 33 32 30 28 26 24 18 11 9 7 9 10 11 10 10 10 11 10 9 8 8 8 8 6 8 9
10 21 17 14 20 19 13 15 13 14 8 5 11 9 12 27 7 25 30 33 31 30 27 24 19 17 14 10 7 8 10 10 10 10 9 10 10 7 7 7 8 7 7 8
17 14 19 15 14 19 20 18 6 4 5 3 5 12 8 6 22 14 26 28 30 30 29 26 23 20 16 13 8 6 8 9 10 10 9 9 11 7 8 8 9 9 8 7
18 16 18 16 16 14 21 21 11 6 6 6 6 9 7 15 15 24 21 24 32 31 30 28 24 21 24 19 16 8 7 10 11 11 10 9 12 10 8 8 8 9 9 7
15 12 12 22 19 19 27 20 11 4 6 7 7 8 8 11 10 20 29 22 31 35 31 30 30 25 22 18 17 14 12 12 10 12 12 11 11 13 13 12 11 9 9 8
4 7 10 24 20 25 16 23 16 8 7 8 6 6 7 14 19 22 23 23 29 33 30 31 30 26 22 26 28 19 18 16 13 11 13 15 14 15 16 13 14 12 10 9
14 7 5 24 21 24 24 12 18 14 5 7 5 6 17 13 17 21 27 22 24 29 28 27 28 27 27 29 30 28 23 19 16 12 11 16 16 16 17 16 14 13 12 13
10 7 7 7 14 23 23 18 19 19 10 5 3 4 17 19 15 21 24 25 22 33 32 30 24 22 20 30 22 31 26 25 21 17 13 15 17 18 18 17 18 14 11 13
13 8 4 5 7 16 19 23 23 14 19 11 9 6 12 14 12 22 22 27 25 19 27 29 25 20 19 14 21 29 32 30 25 21 19 17 20 20 21 21 20 18 17 17
12 7 8 6 8 10 11 19 20 16 14 11 12 12 7 15 12 18 22 20 21 20 26 23 25 23 23 22 19 21 30 28 26 24 21 19 22 24 23 24 23 21 18 18
5 6 11 14 11 9 12 17 19 17 12 13 13 13 16 14 15 15 15 16 18 18 21 22 24 21 18 19 19 18 20 11 17 23 24 29 32 27 23 23 24 23 19 17
8 7 12 12 12 12 8 7 13 15 16 14 14 14 10 15 15 17 17 18 18 20 23 24 25 28 24 18 17 18 14 18 18 27 26 19 28 28 23 21 21 22 20 19
15 5 5 2 3 6 4 4 4 6 13 13 12 16 17 16 18 18 18 20 20 20 20 19 19 22 21 16 19 14 20 21 17 20 17 21 23 28 21 22 22 22 24 22
11 12 10 4 8 4 4 8 8 6 7 15 17 17 20 25 24 21 21 21 20 20 17 17 18 18 22 23 27 29 26 23 17 10 7 8 18 24 21 29 27 30 25 17
5 6 7 9 11 3 4 3 6 6 11 11 13 18 17 22 19 22 24 23 21 18 18 17 17 13 13 14 16 21 25 21 19 20 17 11 16 18 14 7 18 20 23 19
4 2 1 8 8 6 8 10 8 7 2 10 16 15 14 23 24 25 25 23 22 20 18 14 14 15 17 17 15 16 17 23 23 27 23 19 17 17 13 10 11 15 19 15
7 9 7 7 3 2 7 15 13 3 3 6 6 5 11 18 20 20 20 26 21 15 14 16 14 15 18 17 19 19 16 15 20 25 25 21 21 20 20 20 18 19 21 23
4 4 5 9 6 4 7 7 6 8 10 8 3 3 3 12 15 12 12 17 19 17 17 17 15 12 10 9 11 15 15 16 17 19 21 20 20 20 20 19 18 20 22 21
5 5 5 6 6 6 2 6 7 9 14 10 12 10 6 10 12 8 12 19 19 20 18 17 16 13 11 9 8 8 11 13 16 18 19 20 21 21 21 22 22 23 22 22
6 6 6 5 5 4 5 5 8 11 12 11 14 12 20 18 16 10 15 19 21 23 20 18 15 13 11 11 11 14 15 16 18 19 20 22 24 24 25 26 27 28 28 28
6 6 8 11 11 10 10 9 10 13 11 9 13 13 17 21 18 16 16 23 24 20 17 16 15 13 12 12 12 13 15 17 19 22 23 25 27 29 30 31 32 32 33 34
10 11 10 10 9 9 11 12 13 12 11 9 6 11 17 19 21 23 19 19 22 22 23 21 18 17 17 16 16 16 16 18 20 21 21 23 24 26 27 28 30 30 29 30
Wind_Direction
189 193 195 192 182 193 201 190 172 153 177 177 205 238 279 207 177 177 178 182 178 161 155 153 145 130 131 121 137 138 148 147 147 164 146 158 150 150 155 152 168 176 174 170
193 201 197 189 174 160 163 174 171 162 178 190 190 203 188 195 188 179 180 175 171 171 170 178 161 143 127 130 148 147 155 158 158 156 151 158 158 155 155 156 168 179 182 178
199 209 196 187 185 185 167 172 173 174 164 187 157 129 144 171 194 192 184 185 183 189 173 168 171 161 144 138 155 153 162 161 172 180 162 143 144 151 154 155 164 173 179 173
209 224 195 187 193 193 194 168 177 169 144 154 135 130 153 207 209 207 198 193 192 183 181 187 179 173 152 165 179 163 162 162 170 179 173 179 163 153 151 153 160 174 179 186
189 191 189 194 195 196 202 197 192 173 182 153 174 129 178 171 212 221 215 204 197 185 181 182 180 160 154 169 170 175 168 169 170 176 189 183 182 173 158 151 145 154 177 189
189 186 202 205 219 213 216 201 182 195 186 250 219 204 203 202 170 208 211 214 205 193 184 180 184 176 159 167 171 191 179 171 177 172 179 189 188 187 176 166 153 147 157 176
200 181 185 192 187 195 192 171 140 168 195 223 209 207 226 206 215 194 201 211 209 195 188 191 201 187 184 180 179 165 187 179 183 178 174 184 193 194 198 183 173 162 162 174
204 213 209 202 197 189 183 189 198 182 199 182 175 220 239 239 238 200 180 202 215 202 195 196 189 198 194 197 193 179 186 192 185 183 184 186 195 193 199 208 197 184 184 184
203 227 209 211 202 192 205 218 203 150 180 204 195 235 235 221 190 199 214 205 205 202 196 196 201 200 208 211 207 192 182 179 182 192 195 196 194 198 195 196 210 217 205 198
187 213 214 190 195 203 209 209 210 215 183 213 202 240 207 208 204 195 193 199 206 204 205 203 205 211 223 219 218 189 181 180 191 205 206 208 202 197 200 203 209 214 210 205
225 230 151 188 200 199 206 212 207 207 211 218 186 221 207 208 208 204 198 201 196 192 197 200 211 218 226 235 220 218 197 199 207 214 224 216 214 211 208 215 216 215 220 210
205 213 237 182 199 204 211 208 201 212 201 216 228 231 203 217 219 214 204 198 192 199 204 214 219 223 230 228 237 223 211 208 211 214 224 222 221 223 221 220 220 221 227 217
187 210 210 156 177 191 195 206 214 221 214 210 225 226 213 199 200 211 206 209 212 207 207 215 214 182 185 196 222 213 212 219 219 221 233 234 228 229 232 233 232 227 228 234
168 187 209 223 180 174 182 197 206 211 217 207 227 246 225 212 194 193 202 209 203 208 201 211 215 227 241 244 217 232 215 219 225 235 234 248 241 231 232 240 236 237 232 232
139 148 147 141 128 155 167 188 198 205 216 224 231 234 236 235 208 186 191 199 204 201 196 206 211 212 230 234 237 231 226 203 210 213 239 272 249 236 233 240 237 234 229 229
76 113 137 136 143 123 136 140 188 194 199 216 222 228 235 211 191 191 192 193 193 197 199 204 212 208 204 216 232 220 204 217 228 225 248 274 234 219 225 232 233 231 233 234
269 241 183 113 296 169 157 98 69 221 200 197 205 216 221 220 195 196 187 178 174 177 185 192 194 204 210 239 228 230 227 230 234 239 259 259 220 209 222 234 239 238 237 243
193 214 210 231 334 223 257 266 261 305 253 228 220 225 224 214 201 192 188 193 188 191 202 201 199 209 214 215 212 219 218 222 219 205 205 208 216 217 223 254 251 238 234 256
133 160 186 166 237 218 284 255 241 232 255 266 242 238 243 214 211 211 203 198 200 210 204 210 218 208 204 221 216 214 214 212 209 186 197 160 148 168 199 246 211 204 212 248
220 258 147 180 212 226 211 217 206 245 293 264 241 239 244 211 213 217 216 208 205 201 204 207 205 201 204 193 195 196 203 204 208 200 197 206 209 215 231 232 212 215 219 240
217 239 234 231 203 216 224 213 226 223 168 132 140 198 231 212 219 235 244 212 193 189 194 188 188 178 173 173 177 190 187 191 197 207 209 220 224 231 240 242 232 228 240 251
190 192 203 215 217 226 256 243 221 234 208 200 128 149 187 196 216 236 235 210 190 180 179 173 178 182 167 165 167 168 178 186 193 201 210 218 222 227 233 238 240 239 240 245
200 197 187 190 200 192 233 227 240 236 237 235 242 220 239 213 212 214 212 186 179 183 191 182 180 185 183 188 202 214 219 216 213 217 221 224 231 236 240 244 250 257 261 263
231 216 209 221 208 209 240 260 271 271 267 258 241 244 214 215 219 213 198 188 187 183 188 189 189 191 206 225 236 241 241 244 247 246 248 250 252 256 260 265 268 271 272 273
225 237 253 256 256 252 249 247 254 268 273 268 250 233 212 217 226 224 214 204 198 203 195 194 201 219 237 249 252 250 253 254 254 256 256 257 259 262 264 265 266 266 268 271
247 254 257 262 255 250 253 255 255 257 270 278 249 230 221 218 225 229 220 205 204 200 206 212 220 234 246 256 265 270 266 265 265 263 261 260 260 260 260 261 263 262 262 262
Height
3142 3147 3149 3155 3159 3161 3162 3163 3165 3167 3170 3172 3173 3175 3177 3178 3184 3189 3194 3199 3203 3207 3211 3212 3215 3218 3219 3220 3223 3226 3227 3230 3232 3234 3235 3236 3237 3239 3241 3242 3244 3246 3247 3249
3143 3144 3150 3156 3159 3161 3161 3162 3165 3167 3168 3171 3172 3173 3174 3177 3183 3188 3193 3197 3202 3206 3208 3211 3214 3217 3219 3221 3223 3226 3228 3230 3232 3233 3234 3237 3239 3240 3242 3243 3245 3247 3248 3248
3141 3145 3149 3154 3157 3160 3162 3163 3164 3166 3168 3171 3172 3174 3173 3177 3182 3186 3191 3197 3201 3204 3208 3211 3214 3216 3219 3221 3224 3226 3228 3230 3232 3234 3236 3238 3240 3242 3243 3244 3245 3246 3247 3249
3141 3144 3147 3151 3155 3159 3162 3163 3165 3166 3168 3170 3170 3175 3175 3177 3180 3183 3187 3193 3197 3201 3206 3211 3214 3216 3219 3221 3223 3225 3227 3230 3232 3235 3236 3238 3240 3242 3243 3244 3245 3246 3247 3249
3140 3142 3146 3150 3154 3157 3161 3163 3165 3167 3168 3169 3169 3171 3174 3176 3176 3178 3182 3189 3194 3199 3203 3208 3212 3216 3219 3221 3223 3225 3227 3230 3232 3234 3237 3239 3240 3241 3243 3244 3245 3246 3247 3249
3139 3141 3146 3149 3152 3157 3159 3161 3164 3167 3168 3168 3167 3170 3169 3168 3170 3173 3178 3184 3190 3195 3201 3206 3211 3215 3218 3221 3222 3224 3226 3228 3231 3234 3236 3238 3239 3241 3242 3244 3245 3246 3247 3249
3138 3140 3143 3147 3150 3153 3156 3159 3164 3168 3168 3163 3164 3167 3164 3165 3168 3170 3172 3179 3187 3192 3198 3203 3207 3212 3216 3220 3222 3223 3225 3227 3230 3233 3235 3237 3238 3239 3242 3244 3246 3246 3247 3249
3136 3140 3140 3142 3146 3149 3152 3157 3155 3158 3160 3159 3163 3162 3159 3160 3164 3169 3171 3176 3182 3189 3195 3200 3206 3210 3213 3218 3220 3222 3224 3226 3229 3231 3233 3235 3237 3238 3240 3243 3245 3246 3247 3248
3133 3136 3136 3140 3144 3149 3149 3150 3155 3155 3156 3158 3160 3158 3157 3158 3161 3166 3170 3173 3177 3185 3192 3197 3201 3206 3211 3215 3217 3220 3222 3224 3226 3229 3231 3233 3235 3237 3238 3241 3243 3244 3246 3248
3131 3133 3133 3136 3141 3145 3147 3151 3153 3153 3154 3153 3156 3156 3156 3156 3160 3164 3168 3171 3176 3183 3189 3194 3199 3203 3207 3211 3214 3218 3220 3221 3223 3226 3229 3232 3233 3235 3238 3239 3241 3243 3245 3246
3129 3131 3133 3133 3136 3138 3143 3144 3146 3149 3150 3146 3150 3152 3151 3154 3157 3161 3165 3170 3174 3180 3185 3191 3196 3201 3201 3205 3209 3214 3216 3218 3221 3223 3226 3229 3231 3234 3236 3238 3239 3241 3243 3244
3126 3128 3130 3131 3132 3135 3137 3141 3143 3144 3148 3148 3148 3150 3149 3152 3155 3157 3162 3166 3171 3176 3183 3187 3192 3195 3199 3200 3204 3206 3212 3215 3218 3220 3223 3226 3228 3231 3234 3235 3237 3240 3242 3244
3124 3126 3128 3129 3131 3132 3133 3136 3139 3141 3143 3145 3146 3148 3148 3149 3152 3155 3159 3163 3169 3175 3180 3185 3186 3190 3193 3197 3199 3202 3208 3211 3213 3217 3220 3223 3225 3228 3231 3233 3235 3237 3240 3243
3122 3123 3125 3126 3127 3129 3131 3133 3136 3139 3141 3143 3144 3145 3147 3149 3150 3152 3156 3160 3167 3172 3177 3180 3183 3185 3190 3192 3195 3199 3201 3202 3209 3213 3215 3218 3221 3223 3225 3229 3232 3234 3237 3239
3122 3122 3124 3125 3127 3128 3129 3131 3134 3137 3139 3142 3143 3144 3145 3148 3150 3152 3156 3158 3162 3167 3173 3177 3181 3184 3187 3190 3192 3193 3197 3200 3202 3207 3212 3211 3213 3218 3221 3224 3227 3230 3233 3235
3122 3123 3124 3126 3127 3128 3130 3130 3132 3134 3136 3138 3141 3143 3144 3145 3148 3151 3154 3156 3159 3162 3167 3172 3175 3179 3183 3187 3189 3191 3195 3199 3202 3204 3206 3204 3203 3210 3216 3220 3223 3226 3230 3232
3123 3125 3126 3127 3127 3128 3131 3130 3132 3133 3134 3137 3139 3142 3143 3145 3146 3149 3153 3156 3159 3161 3165 3168 3171 3176 3179 3182 3185 3188 3189 3194 3198 3199 3200 3198 3197 3204 3211 3215 3219 3221 3224 3227
3121 3125 3126 3126 3128 3128 3129 3129 3131 3133 3134 3134 3136 3138 3139 3141 3144 3148 3152 3156 3158 3161 3163 3165 3168 3172 3175 3176 3178 3180 3186 3191 3194 3197 3196 3193 3195 3199 3205 3208 3211 3215 3218 3222
3123 3123 3124 3126 3131 3131 3129 3130 3128 3132 3132 3132 3134 3135 3137 3140 3145 3148 3149 3152 3155 3158 3160 3162 3164 3167 3169 3172 3176 3179 3182 3185 3190 3193 3195 3195 3197 3200 3203 3204 3203 3206 3213 3216
3122 3123 3124 3126 3128 3127 3129 3129 3131 3131 3132 3131 3132 3134 3135 3137 3142 3145 3147 3148 3150 3153 3156 3158 3161 3164 3166 3169 3171 3175 3178 3181 3184 3189 3192 3195 3197 3199 3200 3202 3204 3206 3208 3209
3121 3122 3123 3125 3125 3126 3126 3127 3128 3131 3135 3131 3131 3132 3133 3137 3142 3143 3144 3145 3148 3151 3154 3157 3161 3163 3164 3167 3169 3172 3175 3179 3180 3185 3189 3191 3194 3196 3198 3200 3201 3204 3206 3207
3121 3122 3122 3123 3124 3127 3125 3126 3129 3129 3129 3131 3131 3132 3133 3135 3139 3141 3143 3144 3147 3150 3154 3156 3159 3163 3164 3166 3168 3170 3174 3177 3180 3183 3186 3189 3191 3193 3194 3196 3197 3199 3201 3202
3121 3121 3122 3124 3124 3124 3123 3124 3124 3125 3127 3129 3130 3131 3133 3135 3137 3139 3141 3143 3145 3149 3154 3155 3157 3160 3162 3164 3166 3169 3172 3175 3177 3180 3182 3185 3187 3189 3191 3193 3194 3195 3196 3196
3116 3117 3119 3121 3122 3122 3122 3122 3122 3122 3123 3125 3127 3129 3130 3133 3136 3138 3140 3142 3144 3146 3150 3153 3155 3158 3160 3162 3164 3166 3168 3171 3173 3175 3177 3179 3181 3182 3183 3185 3185 3186 3188 3188
3115 3115 3116 3117 3118 3119 3120 3120 3121 3120 3121 3122 3123 3124 3126 3129 3132 3135 3138 3140 3143 3145 3148 3150 3152 3154 3157 3158 3160 3161 3162 3164 3166 3168 3169 3171 3173 3174 3175 3177 3177 3178 3179 3180
3111 3112 3114 3114 3115 3116 3116 3117 3118 3119 3119 3120 3121 3121 3123 3125 3128 3131 3134 3135 3138 3140 3143 3146 3148 3149 3151 3153 3154 3155 3156 3158 3159 3160 3162 3163 3164 3165 3167 3168 3170 3171 3172 3173